Location: Kitchener
(43.4500°N, 80.5000°W)
Time: 13:13:57
(UTC-05:00)

Tiangong 2 - Visible Passes

Search period start: 22 November 2017 00:00
Search period end: 02 December 2017 00:00
Orbit: 386 x 392 km, 42.8° (Epoch: 22 November)

Date Brightness Start Highest point End Pass type
(mag) Time Alt. Az. Time Alt. Az. Time Alt. Az.
26 Nov 4.0 06:20:42 10° SSW 06:22:52 17° SSE 06:25:02 10° ESE visible
27 Nov 4.3 05:24:19 10° SSE 05:24:53 10° SE 05:25:27 10° SE visible
28 Nov 3.0 06:00:31 11° SSW 06:03:03 27° SSE 06:05:50 10° E visible
29 Nov 3.8 05:05:33 17° SE 05:05:33 17° SE 05:07:15 10° ESE visible
29 Nov 1.6 06:38:17 10° WSW 06:41:26 58° SSE 06:44:36 10° E visible
30 Nov 2.0 05:42:45 38° S 05:43:16 42° SSE 05:46:19 10° E visible
01 Dec 4.5 04:47:28 13° E 04:47:28 13° E 04:47:56 10° E visible
01 Dec 1.2 06:19:47 21° WSW 06:21:43 74° S 06:24:55 10° E visible
